Location: Chuathbaluk
(61.5726°N, 159.2454°W)
Time: 07:24:21
(UTC+00:00)

NUDT-PHONESAT - Pass Details

Date: 20 January 2021
Orbit: 479 x 498 km, 97.4° (Epoch: 08 March)

Event Time Altitude Azimuth Distance (km) Brightness Sun altitude
Rises 03:57:04 0° 161° (SSE) 2,570 ? -11.7°
Reaches altitude 10° 03:59:07 10° 161° (SSE) 1,695 ? -12.0°
Maximum altitude 04:02:46 88° 76° (ENE) 507 ? -12.4°
Drops below altitude 10° 04:06:29 10° 344° (NNW) 1,719 ? -12.8°
Sets 04:08:35 0° 344° (NNW) 2,610 ? -13.0°
